Simultaneous Nadir Overpasses (SNOs) Predictions

Prediction of SNOs between LANDSAT-8 and TERRA Satellite Orbit:

Table of predicted SNOs for the next 14.0 days since TLE Epoch: 4/6/2024
Index Date (LANDSAT-8) Time (LANDSAT-8) Lat,Lon (LANDSAT-8) SZA (LANDSAT-8 ) Date (TERRA) Time (TERRA) Lat,Lon (TERRA) SZA (TERRA ) Distance(km) Time Diff (sec)
1 04/06/2024 04:30:32 81.78,-176.85 80.64 04/06/2024 04:30:48 81.77,-176.68 80.67 2.71 16
2 04/06/2024 05:19:58 -81.78, -9.03 99.35 04/06/2024 05:20:09 -81.78, -9.13 99.36 1.61 11
3 04/06/2024 06:09:25 81.78, 158.46 80.62 04/06/2024 06:09:31 81.78, 158.56 80.64 1.68 6
4 04/06/2024 06:58:50 -81.78, -33.73 99.38 04/06/2024 06:58:51 -81.78, -33.89 99.40 2.64 1
5 04/06/2024 07:48:17 81.78, 133.77 80.60 04/06/2024 07:48:13 81.78, 133.81 80.60 0.67 4
6 04/06/2024 08:37:43 -81.78, -58.42 99.40 04/06/2024 08:37:33 -81.77, -58.23 99.38 3.09 10
7 04/06/2024 09:27:09 81.77, 109.50 80.63 04/06/2024 09:26:55 81.77, 109.47 80.62 0.46 14
8 04/06/2024 10:16:36 -81.77, -83.11 99.42 04/06/2024 10:16:16 -81.77, -82.98 99.41 2.05 20
9 04/06/2024 11:06:02 81.77, 84.80 80.61 04/06/2024 11:05:38 81.77, 84.72 80.59 1.40 24
10 04/06/2024 11:55:29 -81.77,-107.80 99.44 04/06/2024 11:54:59 -81.77,-107.74 99.45 1.04 30
11 04/06/2024 12:44:55 81.77, 60.11 80.59 04/06/2024 12:44:21 81.77, 59.96 80.55 2.42 34
12 04/06/2024 13:34:21 -81.76,-132.08 99.41 04/06/2024 13:33:41 -81.76,-132.08 99.43 0.23 40
13 04/06/2024 14:23:48 81.77, 35.42 80.57 04/06/2024 14:23:03 81.76, 35.62 80.57 3.34 45
14 04/06/2024 15:13:14 -81.76,-156.77 99.43 04/06/2024 15:12:24 -81.77,-156.83 99.46 1.05 50
15 04/06/2024 16:02:41 81.77, 10.72 80.55 04/06/2024 16:01:46 81.76, 10.87 80.53 2.31 55
16 04/06/2024 16:52:07 -81.76, 178.54 99.45 04/06/2024 16:51:07 -81.77, 178.41 99.50 2.08 60
17 04/06/2024 17:41:34 81.77, -13.97 80.52 04/06/2024 17:40:29 81.77, -13.89 80.50 1.30 65



Historial Predications of SNOs between LANDSAT-8 and TERRA
